Home   Weather   Charlotte   Past weeks

Flag for USA Past Weather in Charlotte, North Carolina, USA — Yesterday and Last 2 Weeks

Now
71 °F

Overcast.


Feels Like: 70 °F
Forecast: 64 / 83 °F
Wind: 8 mph from South

Location: Charlotte / Douglas International Airport

Current Time: Apr 28, 2017 at 12:44:08 am

Latest Report: Apr 27, 2017 at 11:52 pm


Visibility: 10 mi

Pressure: 29.89 "Hg

Humidity: 84%

Dew Point: 66 °F

Location of CharlotteLocation

Past Weather in Charlotte — Graph

°F

Charlotte Temperature Yesterday

Maximum temperature yesterday: 74 °F (at 1:52 pm)
Minimum temperature yesterday: 59 °F (at 6:52 am)
Average temperature yesterday: 69 °F

High & Low Weather Summary for the Past Weeks

 TemperatureHumidityPressure
High87 °F (Apr 21, 2:52 pm)97% (Apr 20, 8:32 am)30.37 "Hg (Apr 20, 8:32 am)
Low51 °F (Apr 24, 12:52 am)27% (Apr 13, 5:52 pm)29.65 "Hg (Apr 25, 4:52 am)
Average66 °F71%30.04 "Hg
* Reported Apr 12 10:52 pm — Apr 27 10:52 pm, Charlotte, Weather by CustomWeather, © 2017

Note: Actual official high and low records may vary slightly from our data, if they occured in-between our weather recording intervals... More about our weather records

Advertising

Charlotte Weather History for the Previous 24 Hours

Scroll right to see more
 ConditionsComfort  
Time TempWeatherWind HumidityBarometerVisibility
10:52 pm
Thu, Apr 27
71 °FPartly cloudy.7 mph84%29.88 "Hg10 mi
9:52 pm73 °FPartly cloudy.9 mph79%29.88 "Hg10 mi
8:52 pm73 °FOvercast.3 mph76%29.85 "Hg10 mi
7:52 pm73 °FMostly cloudy.6 mph76%29.83 "Hg10 mi
6:52 pm74 °FMostly cloudy.9 mph74%29.83 "Hg10 mi
5:52 pm74 °FMostly cloudy.9 mph74%29.84 "Hg10 mi
4:52 pm73 °FRain. Cloudy.12 mph74%29.85 "Hg10 mi
3:52 pm74 °FMostly cloudy.13 mph64%29.85 "Hg10 mi
2:52 pm74 °FOvercast.12 mph57%29.86 "Hg10 mi
2:22 pm73 °FPartly sunny.10 mph53%29.87 "Hg10 mi
1:52 pm74 °FMore clouds than sun.14 mph53%29.86 "Hg10 mi
12:52 pm72 °FOvercast.16 mph53%29.88 "Hg10 mi
11:52 am73 °FPartly sunny.17 mph53%29.87 "Hg10 mi
10:52 am73 °FPartly sunny.9 mph57%29.88 "Hg10 mi
9:52 am70 °FPartly sunny.9 mph66%29.88 "Hg10 mi
8:52 am66 °FScattered clouds.7 mph75%29.88 "Hg10 mi
7:52 am64 °FPartly sunny.9 mph81%29.87 "Hg10 mi
6:52 am59 °FScattered clouds.3 mph90%29.84 "Hg10 mi
5:52 am60 °FPassing clouds.6 mph86%29.81 "Hg10 mi
4:52 am61 °FPassing clouds.7 mph83%29.81 "Hg10 mi
3:52 am63 °FPassing clouds.8 mph81%29.82 "Hg10 mi
2:52 am65 °FPassing clouds.10 mph78%29.82 "Hg10 mi
1:52 am66 °FClear.10 mph75%29.83 "Hg10 mi
12:52 am66 °FClear.9 mph75%29.82 "Hg10 mi
Weather by CustomWeather, © 2017

See weather overviewHow to use our weather pages